Flag for U.S.A. Weather past 2 weeks in Kykotsmovi Village, Hopi, Arizona, U.S.A.

Now
41 °F

Sunny.


Feels Like: 38 °F
Forecast: 39 / 72 °F
Wind: 5 mph from East

Location: Winslow Municipal Airport

Current Time: Apr 21, 2015 at 6:36:06 AM

Latest Report: Apr 21, 2015 at 5:56 AM


Visibility: 10 mi

Pressure: 29.85 "Hg

Humidity: 43%

Dew point: 20 °F

Location of Kykotsmovi Village, HopiLocation

Historic Weather in Kykotsmovi Village, Hopi — Graph

°F

Kykotsmovi Village, Hopi temperature yesterday

Maximum temperature yesterday: 77 °F (at 3:03 PM)
Minimum temperature yesterday: 37 °F (at 4:56 AM)
Average temperature yesterday: 59 °F

Past Weeks' High & Low Weather Summary

 TemperatureHumidityPressure
High78 °F (Apr 14, 1:56 PM)89% (Apr 17, 3:56 AM)30.12 "Hg (Apr 17, 3:56 AM)
Low23 °F (Apr 16, 5:56 AM)5% (Apr 13, 4:56 PM)29.68 "Hg (Apr 7, 10:56 PM)
Average54 °F26%29.90 "Hg
* Reported Apr 6 4:56 AM — Apr 21 4:56 AM, Kykotsmovi Village, Hopi, Weather by CustomWeather, © 2015

Note: Actual official high and low records may vary slightly from our data, if they occured in-between our weather recording intervals... More about our weather records

Advertising

Kykotsmovi Village, Hopi weather history for previous 24 hours

 ConditionsComfort  
Time TempWeatherWind HumidityBarometerVisibility
4:56 AM
Tue, Apr 21
43 °FClear.6 mph40%29.82 "Hg10 mi
3:56 AM47 °FClear.3 mph36%29.80 "Hg10 mi
2:56 AM54 °FPassing clouds.6 mph25%29.76 "Hg10 mi
1:56 AM52 °FClear.3 mph28%29.78 "Hg10 mi
12:56 AM51 °FClear.6 mph31%29.78 "Hg10 mi
11:56 PM
Mon, Apr 20
51 °FClear.9 mph32%29.78 "Hg10 mi
10:56 PM54 °FClear.10 mph29%29.78 "Hg10 mi
9:56 PM57 °FPassing clouds.8 mph26%29.78 "Hg10 mi
8:56 PM64 °FClear.12 mph21%29.78 "Hg10 mi
7:56 PM65 °FPassing clouds.12 mph20%29.80 "Hg10 mi
6:56 PM68 °FPassing clouds.8 mph14%29.78 "Hg10 mi
5:56 PM73 °FScattered clouds.9 mph12%29.77 "Hg10 mi
4:56 PM76 °FSunny.13 mph11%29.75 "Hg10 mi
3:56 PM75 °FSunny.7 mph11%29.75 "Hg10 mi
3:03 PM77 °FPartly sunny.23 mph11%29.89 "Hg10 mi
1:56 PM73 °FPassing clouds.10 mph11%29.76 "Hg10 mi
12:56 PM76 °FSunny.7 mph10%29.76 "Hg10 mi
10:56 AM75 °FSunny.6 mph12%29.80 "Hg10 mi
9:56 AM68 °FSunny.3 mph18%29.84 "Hg10 mi
8:56 AM60 °FSunny.6 mph26%29.87 "Hg10 mi
7:56 AM51 °FSunny.9 mph38%29.89 "Hg10 mi
6:56 AM42 °FSunny.8 mph49%29.90 "Hg10 mi
Weather by CustomWeather, © 2015

See weather overviewHow to use our weather pages